Location: Conjunto Santa Maria
(19.9513°S, 43.9599°W)
Time: 13:44:23
(UTC+00:00)

Cosmos 1825 Rocket - Pass Details

Date: 21 January 2021
Orbit: 604 x 630 km, 82.5° (Epoch: 04 March)

Event Time Altitude Azimuth Distance (km) Brightness Sun altitude
Rises 21:56:05 0° 189° (S) 2,877 7.5 -4.1°
Reaches altitude 10° 21:58:19 10° 192° (SSW) 1,967 6.7 -4.6°
Maximum altitude 22:02:37 65° 274° (W) 672 4.1 -5.5°
Drops below altitude 10° 22:06:53 10° 355° (N) 1,948 5.9 -6.5°
Sets 22:09:06 0° 358° (N) 2,847 6.7 -6.9°
